Dewpoint
53 53 53 53 52 53 53 53 53 54 55 55 55 55 55 56 56 57 57 57 57 58 58 59 60 60 60 60 60 59 58 46 43 39 35 38 53 63 67 66 66 66 59 33 27 22 21 24 25 25 28 26 27 28 30 32 37 32 22 19 16 22 19 23 20 19 23 19 19 21 20 19 20 22 25 24 24 28 27 29 30 33 35 34 34 40 42 43
52 52 52 52 52 53 53 53 53 54 54 54 55 55 55 56 56 56 57 57 57 58 58 59 59 60 60 60 60 60 53 44 38 32 35 57 65 65 66 66 67 62 54 34 28 25 22 21 26 22 22 20 31 27 31 29 33 27 25 21 16 18 20 23 23 21 18 19 19 21 22 20 20 23 24 21 21 24 24 24 29 29 30 38 40 41 44 48
52 53 52 51 52 52 53 53 53 54 54 54 54 55 55 55 56 56 56 57 57 58 58 59 59 59 60 60 59 59 49 38 28 22 36 61 64 67 67 66 65 57 38 36 34 28 26 25 27 20 23 19 23 25 29 26 30 30 24 17 20 21 22 21 22 22 21 21 20 20 21 20 20 22 23 21 21 24 22 22 24 26 28 34 39 41 43 48
52 52 52 52 52 52 52 53 53 54 54 54 54 54 55 55 55 55 56 56 57 58 58 59 59 59 59 60 60 55 35 26 22 26 39 61 64 65 65 65 62 52 41 39 34 30 26 25 26 22 24 20 23 29 24 25 22 24 24 20 21 23 22 22 22 23 23 21 21 20 22 21 21 23 21 20 21 22 23 24 21 22 27 32 38 39 41 46
52 52 53 52 52 52 52 52 52 53 53 54 53 54 54 55 55 55 55 57 57 57 58 58 59 60 59 59 58 48 29 12 16 33 40 62 62 64 64 63 62 40 39 35 29 27 23 24 25 27 22 23 26 25 22 24 27 24 17 21 23 24 20 22 24 24 23 23 20 20 19 20 22 22 21 21 18 18 20 22 24 23 25 33 37 39 41 44
51 52 52 52 52 53 52 52 52 52 53 53 53 53 54 54 55 55 55 56 57 57 58 58 59 59 60 59 50 37 23 10 20 38 59 61 63 62 61 60 57 33 30 30 29 28 23 22 21 23 22 22 21 20 21 23 26 18 21 23 22 22 19 21 24 25 21 20 20 19 20 22 21 21 22 21 19 19 22 25 26 26 28 34 39 41 41 42
51 51 52 51 51 51 52 52 52 52 52 53 52 53 54 54 54 54 55 56 56 57 58 58 59 60 59 56 42 23 19 18 38 44 61 61 61 58 57 50 51 32 31 29 28 25 27 22 22 24 22 22 21 22 23 24 25 23 19 22 23 24 21 24 24 25 22 20 20 20 22 21 21 20 22 21 21 20 26 31 31 30 34 39 39 41 41 42
51 51 51 52 51 50 52 51 52 52 53 53 53 53 53 54 54 54 55 56 56 57 58 58 59 60 58 37 35 26 28 24 32 46 57 59 47 44 54 41 36 37 31 30 29 28 27 24 20 25 21 19 20 22 24 24 23 23 22 25 24 24 23 25 24 23 22 22 24 23 21 21 21 20 22 21 21 27 33 35 37 38 38 38 39 40 41 41
52 52 52 52 52 51 50 51 52 53 53 53 54 53 54 54 54 54 55 55 56 57 58 58 58 59 57 33 24 14 9 29 46 52 48 42 40 39 38 34 37 32 32 35 31 30 26 24 26 23 18 22 23 23 24 21 19 26 24 25 24 24 25 25 24 24 24 24 24 21 21 22 24 24 22 22 22 29 34 36 37 38 38 38 39 40 40 41
53 53 52 52 52 52 51 51 53 53 54 54 53 54 54 54 54 54 54 55 56 57 58 58 58 57 38 28 20 9 18 47 50 50 45 42 37 37 39 42 36 32 31 34 33 29 26 25 26 26 24 24 25 24 24 23 21 25 25 25 24 24 25 26 24 24 25 26 25 21 21 22 24 22 19 24 28 32 34 35 35 36 37 37 38 39 40 41
52 52 52 52 52 52 52 52 53 53 54 54 54 54 54 54 55 55 55 55 56 57 58 58 58 48 36 23 12 5 39 49 49 48 45 42 39 37 39 41 41 37 34 34 33 36 30 28 33 30 29 23 25 24 24 25 25 25 25 25 25 26 26 26 25 24 24 23 24 22 21 24 23 24 21 23 29 32 32 33 34 35 36 36 37 38 39 40
53 53 53 52 52 52 52 52 52 53 53 53 54 54 54 54 55 55 55 55 56 58 58 58 57 49 30 26 17 14 37 47 48 47 45 43 41 41 40 42 39 39 35 31 34 38 37 32 31 25 23 27 23 25 24 26 25 25 26 24 24 25 24 25 24 25 24 23 24 23 23 22 22 21 23 25 30 30 31 32 33 34 34 35 35 37 38 40
54 54 54 53 52 52 52 52 52 52 53 53 54 54 55 54 55 55 55 56 57 57 58 58 55 49 28 15 19 33 37 43 46 43 42 44 44 44 43 43 42 40 36 32 33 38 39 34 30 26 29 25 25 23 26 28 26 26 25 24 23 24 22 24 26 24 24 24 24 24 20 22 22 22 24 29 29 29 30 30 31 32 32 33 34 35 37 38
55 55 54 54 53 53 53 53 53 52 53 53 53 54 54 55 55 55 55 56 57 58 58 58 52 34 23 17 27 42 46 48 48 42 43 43 37 39 40 40 39 39 42 38 39 41 39 38 32 27 31 26 24 32 27 28 28 24 25 26 23 19 21 23 25 24 23 25 25 23 21 20 22 23 24 28 29 28 28 28 29 30 31 32 33 34 35 37
56 55 55 55 54 54 53 53 54 53 53 53 54 54 55 55 55 56 56 57 58 58 58 55 46 31 22 19 35 43 56 45 43 43 44 38 37 36 36 36 36 37 35 36 37 40 38 35 31 27 26 28 30 26 26 28 27 28 19 20 24 19 23 26 30 24 22 22 23 23 22 21 22 23 24 28 29 28 27 27 28 29 30 30 32 33 34 35
56 56 55 55 55 55 54 54 54 53 53 53 54 55 55 56 56 57 57 58 59 58 51 45 41 35 27 22 33 51 44 40 42 44 44 42 40 37 38 37 38 34 33 32 38 34 34 33 29 28 26 27 27 26 26 24 24 26 19 20 21 23 23 22 24 25 25 22 23 23 21 21 21 23 26 28 28 28 27 26 27 27 28 29 30 32 33 34
57 56 56 56 55 55 55 55 55 54 54 54 54 55 56 56 57 57 58 57 52 52 46 42 39 35 13 22 39 33 35 41 44 43 42 43 41 38 36 36 34 32 33 32 34 33 30 31 32 29 29 26 28 28 23 23 21 23 24 21 25 23 23 21 24 26 26 22 21 22 21 21 22 23 27 28 28 28 27 26 26 27 27 28 30 31 32 33
57 56 56 56 56 56 56 55 55 54 54 54 54 55 54 56 58 55 54 51 50 47 45 44 35 14 13 25 22 30 43 43 43 43 42 41 39 37 35 32 34 32 32 28 30 27 31 28 31 27 27 28 25 25 21 18 20 19 22 23 23 24 23 22 23 24 22 21 21 21 21 21 22 22 23 27 28 27 27 26 26 26 26 27 28 29 31 32
57 57 56 56 56 56 56 56 54 54 54 54 55 56 56 56 50 49 48 43 26 22 17 25 10 12 10 11 29 43 45 44 43 42 40 39 39 37 37 35 34 30 29 28 28 28 30 31 32 28 25 25 25 24 21 20 23 23 25 24 24 21 22 23 25 26 22 21 20 21 21 21 21 22 22 24 27 27 27 27 27 26 26 26 27 28 30 31
57 57 56 56 56 56 56 55 55 53 54 53 51 47 33 35 27 33 38 42 34 18 21 17 22 25 32 34 39 44 45 41 39 40 42 42 36 35 33 33 34 31 29 29 30 29 32 27 25 24 25 25 26 26 24 22 23 26 25 24 23 23 24 25 27 27 27 22 21 21 21 21 22 22 23 23 26 27 27 26 26 26 26 26 26 27 28 30
57 57 57 56 56 57 56 56 55 54 55 51 52 32 17 30 13 11 25 40 40 40 33 36 27 25 25 39 41 41 37 37 41 41 41 42 37 32 31 31 30 29 30 31 30 30 31 25 26 27 25 25 26 26 26 26 26 25 25 24 24 25 24 25 25 27 27 24 23 23 22 22 22 22 23 23 25 24 25 25 26 25 26 26 26 27 27 28
57 57 57 57 56 56 56 56 55 54 55 52 50 38 44 31 27 30 32 23 30 36 40 40 40 36 40 42 43 41 38 35 37 40 42 39 33 30 31 30 29 28 30 31 29 28 26 25 25 26 27 27 27 26 26 26 26 25 24 25 24 25 26 26 26 27 27 24 23 24 23 23 24 24 24 23 23 23 24 25 24 25 25 26 26 27 27 29
58 57 57 57 56 56 56 56 55 55 51 48 47 45 47 49 48 47 35 31 30 36 36 37 33 35 37 38 39 40 35 32 30 38 41 38 33 32 31 29 28 30 30 29 27 26 25 27 28 27 28 27 27 26 26 26 26 25 24 24 24 26 23 20 24 28 25 24 24 25 25 25 26 26 26 26 25 24 25 24 25 26 25 25 26 26 27 27
58 57 57 57 57 56 56 55 55 54 52 50 47 46 48 49 47 45 35 21 21 29 37 36 32 33 34 30 35 39 34 32 32 34 41 35 32 34 30 29 29 29 28 28 27 26 24 25 31 28 28 26 26 26 26 25 24 26 26 25 25 25 26 23 21 27 29 28 28 27 27 27 27 26 26 27 30 29 27 27 28 28 28 27 29 29 28 27
58 57 57 57 56 57 56 56 52 51 52 51 49 50 50 48 48 47 34 22 20 25 37 35 36 36 32 42 42 37 38 35 34 36 41 35 31 31 30 31 29 28 29 29 27 27 26 27 31 28 28 27 28 26 27 27 25 26 27 27 26 26 25 25 26 25 25 25 27 26 22 24 25 27 28 28 30 30 30 29 29 29 29 29 28 27 28 31
58 57 57 57 57 56 56 51 50 51 50 48 48 48 51 49 48 45 25 18 15 21 27 27 38 30 37 35 40 38 32 32 35 37 40 37 40 30 31 29 28 26 29 29 27 28 27 29 30 29 29 27 27 26 27 28 25 24 25 28 27 26 26 25 25 25 22 20 25 27 21 22 24 24 25 28 29 29 29 30 30 30 30 30 30 30 29 28
58 57 57 57 57 57 51 47 52 50 46 45 49 49 48 48 48 45 16 18 14 26 23 31 29 27 39 33 38 23 14 20 39 40 38 41 33 39 27 28 28 29 30 30 25 23 29 29 29 30 29 28 27 26 29 27 26 24 27 28 28 26 26 26 25 26 25 25 27 28 26 24 24 25 27 29 28 28 29 29 30 30 30 31 31 31 30 29
58 58 57 57 57 55 50 51 51 48 45 47 48 49 49 49 47 32 21 11 13 27 27 30 31 36 37 38 34 18 19 31 29 36 39 40 37 35 27 28 27 28 30 27 21 25 29 28 28 28 27 27 27 28 29 29 26 27 29 29 28 27 27 26 26 25 26 25 25 26 27 24 24 27 28 29 28 28 29 29 30 30 31 31 31 31 31 30
58 57 57 57 57 55 52 51 50 48 49 49 50 50 51 49 36 25 20 18 20 27 34 29 38 36 36 35 28 34 30 34 24 33 39 37 38 34 29 28 28 28 30 27 19 25 25 30 30 30 28 26 29 29 31 30 26 28 30 30 29 28 27 26 26 26 25 24 24 26 27 20 22 25 26 27 27 28 28 27 27 28 30 31 32 33 31 30
57 57 57 57 56 55 53 52 50 49 51 50 51 51 50 43 27 26 17 17 30 21 28 31 33 32 34 32 28 32 28 31 34 36 36 34 35 34 32 31 29 28 29 29 28 28 30 35 33 30 29 28 31 31 31 30 30 32 31 31 29 27 26 24 25 24 22 20 25 27 27 24 21 24 24 24 27 28 28 27 27 29 30 31 31 32 32 30
57 57 56 56 54 53 53 49 50 52 52 52 52 51 46 36 23 22 19 22 25 27 32 30 29 35 32 30 28 30 31 32 34 35 34 35 33 33 32 29 31 29 26 27 28 28 30 30 30 31 34 33 34 32 31 31 32 32 29 28 29 27 21 21 17 21 19 21 21 24 27 26 22 24 26 27 29 29 27 26 26 28 29 30 31 31 31 31
57 57 57 56 56 55 51 49 52 53 52 52 51 49 44 24 36 23 24 27 26 27 29 29 31 33 31 31 28 29 28 33 34 34 33 33 32 31 31 26 28 22 23 25 24 26 26 29 31 31 35 32 30 32 31 31 31 31 29 28 22 18 18 12 15 17 18 18 19 22 26 25 26 24 26 28 29 29 29 29 29 29 29 30 31 31 31 31
56 56 56 56 55 53 53 53 54 53 53 53 50 48 33 26 22 27 29 31 27 30 28 31 31 32 32 29 27 29 30 28 32 33 32 31 32 32 32 29 30 23 17 22 24 23 24 27 28 29 31 33 32 27 29 27 30 30 29 27 21 15 15 13 12 7 13 17 20 23 25 24 25 26 29 28 28 29 30 31 31 30 30 30 31 31 31 31
56 56 55 55 56 55 54 53 54 53 52 51 47 40 35 26 25 33 31 31 29 34 32 31 31 31 31 27 28 31 26 29 34 33 33 31 32 30 31 32 30 27 26 24 22 23 16 18 21 30 27 33 31 27 29 28 31 30 29 28 26 20 16 11 10 9 13 15 19 21 18 20 20 23 27 30 30 31 31 31 32 32 32 32 30 29 29 30
56 56 56 56 55 56 54 54 54 53 52 49 43 35 27 25 30 29 29 30 28 32 32 32 32 30 29 29 29 31 29 26 32 32 31 31 30 30 29 30 32 29 28 19 23 22 22 18 22 30 29 33 32 32 33 31 29 28 29 29 23 23 21 11 14 11 12 15 16 16 22 23 24 27 28 29 29 29 29 29 30 30 31 30 30 30 30 31
55 54 56 54 54 55 54 54 53 53 50 45 37 31 28 29 28 32 30 31 30 30 31 31 29 28 28 28 29 30 31 27 30 31 29 30 30 29 30 30 31 30 25 20 24 21 22 22 26 30 31 32 31 31 30 28 21 26 29 26 28 27 21 16 17 15 15 12 20 15 24 25 27 26 27 28 28 28 28 28 28 28 29 28 29 29 30 31
52 54 51 53 54 55 54 54 53 52 49 43 35 30 34 32 34 33 36 29 29 32 30 27 29 28 28 28 29 30 30 32 31 30 28 30 29 30 29 30 32 31 28 22 25 28 21 21 29 29 29 30 31 31 30 31 28 29 25 28 29 28 28 22 17 15 16 18 18 19 20 23 21 21 25 26 27 27 28 28 28 28 28 28 29 29 30 31
51 52 51 51 54 55 54 54 53 51 46 40 33 34 37 33 37 33 34 32 33 32 30 28 27 30 28 28 28 30 30 28 30 29 27 30 28 32 30 28 31 31 30 27 20 26 25 19 25 30 29 30 30 31 30 30 30 30 28 30 26 21 20 25 19 17 12 15 19 19 21 23 24 23 23 23 26 26 27 28 28 28 28 29 29 28 29 29
50 50 45 49 55 55 54 54 52 49 44 36 33 34 36 34 36 34 33 32 32 32 29 29 27 29 30 29 28 30 31 27 30 30 26 28 26 29 30 30 30 32 32 29 24 27 26 19 21 30 29 30 30 30 28 29 30 30 31 29 29 28 19 21 24 18 19 12 11 18 17 19 26 26 25 24 25 27 26 27 27 28 28 28 29 29 29 30
47 45 43 51 54 55 54 52 49 46 42 34 33 34 37 35 35 36 36 30 31 31 30 29 30 28 30 30 31 31 32 29 31 30 27 28 28 30 30 31 29 30 32 31 28 33 26 21 17 25 29 30 29 30 29 30 29 28 28 27 28 24 27 27 23 22 20 9 11 13 19 20 25 27 26 26 26 26 27 27 28 29 29 29 29 29 30 30
47 44 43 52 54 54 53 49 43 39 39 39 38 36 36 35 36 36 36 36 34 36 30 30 30 28 30 30 29 31 31 31 30 30 28 27 28 24 31 31 32 31 32 31 29 31 23 23 20 27 27 28 29 28 29 31 31 30 29 28 29 27 23 20 22 25 17 18 20 12 19 22 26 28 27 26 27 27 28 28 28 29 29 29 29 29 30 30
44 36 39 52 53 53 48 41 40 42 40 37 36 38 36 39 37 36 36 37 35 34 36 33 31 30 30 31 31 31 32 31 31 30 30 27 30 28 29 32 31 33 31 30 29 31 28 28 26 26 28 29 29 30 30 29 30 30 29 29 30 29 27 22 18 19 20 23 19 19 13 22 26 28 28 28 28 27 28 28 28 29 29 29 30 29 30 30
41 39 48 48 54 52 46 40 41 40 38 40 41 39 40 38 36 37 36 37 35 36 34 33 33 30 31 31 31 32 33 31 32 31 31 31 30 30 30 32 34 34 32 30 31 31 33 30 26 28 30 28 29 30 29 30 30 30 30 28 29 28 28 27 25 25 26 20 20 17 16 23 26 28 27 27 27 27 27 28 28 29 29 29 29 28 29 29
42 41 43 49 52 51 44 34 34 37 39 40 40 38 40 38 38 37 37 37 36 36 34 32 32 33 30 32 32 31 34 29 33 32 31 32 30 32 33 34 34 32 30 31 29 33 28 31 27 25 24 25 29 30 29 29 30 28 27 29 30 30 29 28 27 24 21 25 26 24 22 23 25 28 26 27 26 26 27 27 28 28 29 29 28 28 29 29
41 41 41 44 50 48 40 41 38 37 38 38 38 37 38 39 40 39 38 37 38 36 35 34 33 35 34 35 34 35 35 31 30 34 32 30 32 33 33 35 35 32 32 33 35 34 30 31 28 24 22 20 18 20 23 28 29 28 25 28 30 31 30 27 26 24 24 27 27 25 24 25 27 29 28 27 27 26 27 27 27 28 28 29 28 29 29 29
37 31 40 42 46 45 44 45 42 40 38 38 37 37 38 37 39 40 40 40 39 39 36 37 38 37 36 36 33 34 34 36 32 32 33 31 31 32 32 34 35 34 35 36 35 33 30 31 29 27 25 23 24 24 29 31 29 28 29 30 30 31 31 30 29 28 26 27 27 27 27 26 26 27 28 28 27 26 27 27 26 27 27 28 28 29 29 29
39 34 33 31 41 41 40 42 41 41 38 39 35 37 36 37 38 38 40 38 40 39 38 37 36 34 36 35 34 33 35 35 36 34 33 32 31 32 33 35 36 35 36 35 37 33 32 30 31 29 28 27 28 27 30 31 29 30 30 30 31 31 31 31 29 27 30 28 26 28 29 29 28 28 28 28 28 28 27 27 27 28 28 29 29 28 32 28
32 34 36 37 33 32 35 35 39 39 41 39 36 39 37 37 37 35 39 39 40 41 38 38 37 36 36 35 35 32 34 34 35 33 34 34 33 33 32 35 35 36 36 34 37 32 32 28 31 31 29 29 29 28 31 31 30 30 30 30 30 31 31 31 31 30 30 28 26 27 29 29 29 29 30 29 28 27 27 27 28 28 28 28 28 28 29 29
39 38 37 33 34 36 37 36 38 38 37 39 38 37 35 36 36 37 37 38 38 38 39 35 36 37 36 37 36 33 34 31 32 34 33 33 33 32 31 33 36 36 36 34 36 34 32 30 31 32 30 30 30 29 31 30 29 28 30 31 31 31 31 31 31 31 31 30 30 30 29 29 30 30 30 30 30 29 28 28 28 28 28 28 28 28 28 29
35 35 33 37 38 36 35 35 36 37 35 38 35 36 36 35 35 36 37 37 35 37 40 37 36 37 37 37 36 34 35 34 34 33 34 34 32 33 33 33 31 33 35 34 36 34 32 30 33 32 31 31 31 31 31 31 30 29 29 31 31 31 31 31 31 31 31 31 31 31 30 30 31 31 31 32 32 32 32 30 30 31 30 29 29 28 29 29
39 39 37 33 31 34 34 34 34 33 33 35 34 34 36 36 35 36 36 38 37 36 38 37 38 38 38 37 36 36 37 37 36 36 36 36 33 34 33 32 35 32 34 34 34 34 33 32 33 32 30 30 32 31 31 30 29 29 29 30 31 31 30 31 31 31 31 30 31 31 30 30 31 33 33 32 32 32 32 32 32 32 31 30 29 29 29 29
39 39 39 37 31 35 33 32 32 32 30 32 33 33 34 36 38 38 36 38 38 38 38 38 38 37 37 37 37 37 38 38 38 39 38 38 40 39 37 38 36 35 34 34 35 33 33 32 32 32 31 31 33 33 32 30 30 29 30 30 31 31 31 31 32 32 32 32 31 30 30 31 31 32 31 30 32 32 32 32 33 33 33 31 30 30 30 30